This is the latest recevied weather packets stored in our database for station/object W1BKW. If no packets are shown the sender has not sent any weather packets the latest 10 day(s).
| Time | Temp. | Humidity | Pressure | Rain* | Wind** | Luminosity | Snow |
|---|---|---|---|---|---|---|---|
| 1777777634 | 4.44° C | 99% | 1009.4 hPa | 0 mm | - | 0 W/m² | - |
| 1777776731 | 4.44° C | 99% | 1009.7 hPa | 0 mm | - | 0 W/m² | - |
| 1777775827 | 4.44° C | 99% | 1009.8 hPa | 0 mm | - | 0 W/m² | - |
| 1777774925 | 4.44° C | 99% | 1009.8 hPa | 0 mm | - | 0 W/m² | - |
| 1777774022 | 4.44° C | 99% | 1009.9 hPa | 0 mm | - | 0 W/m² | - |
| 1777773118 | 5° C | 99% | 1010.1 hPa | 0 mm | - | 0 W/m² | - |
| 1777772215 | 5° C | 99% | 1010.1 hPa | 0 mm | - | 0 W/m² | - |
| 1777771312 | 5° C | 99% | 1010 hPa | 0 mm | - | 0 W/m² | - |
| 1777770407 | 5° C | 99% | 1009.9 hPa | 0 mm | - | 0 W/m² | - |
| 1777769505 | 5° C | 99% | 1010 hPa | 0 mm | - | 0 W/m² | - |
| 1777768602 | 5° C | 99% | 1010.2 hPa | 0 mm | - | 0 W/m² | - |
| 1777767698 | 5° C | 99% | 1010 hPa | 0 mm | - | 0 W/m² | - |
| 1777766795 | 5.56° C | 99% | 1009.9 hPa | 0 mm | - | 0 W/m² | - |
| 1777765892 | 5.56° C | 99% | 1009.8 hPa | 0 mm | - | 0 W/m² | - |
| 1777764992 | 5.56° C | 99% | 1009.9 hPa | 0 mm | - | 0 W/m² | - |
| 1777764089 | 5.56° C | 98% | 1010.1 hPa | 0 mm | - | 0 W/m² | - |
| 1777763187 | 5.56° C | 98% | 1009.9 hPa | 0 mm | - | 3 W/m² | - |
| 1777762284 | 5.56° C | 97% | 1009.9 hPa | 0 mm | - | 5 W/m² | - |
| 1777761381 | 6.11° C | 97% | 1010 hPa | 0 mm | - | 4 W/m² | - |
| 1777760478 | 6.11° C | 96% | 1009.6 hPa | 0 mm | - | 9 W/m² | - |
| 1777759574 | 6.11° C | 96% | 1010.1 hPa | 0 mm | - | 15 W/m² | - |
| 1777758670 | 6.11° C | 96% | 1010.1 hPa | 0 mm | - | 17 W/m² | - |
| 1777757768 | 6.11° C | 96% | 1009.9 hPa | 0 mm | - | 21 W/m² | - |
| 1777756867 | 6.11° C | 95% | 1010 hPa | 0 mm | - | 36 W/m² | - |
| 1777755963 | 6.11° C | 95% | 1010 hPa | 0 mm | - | 23 W/m² | - |
* Rain latest hour (hover to see other rain measurements)
** Current wind speed in m/s (hover to see current wind gust speed)